Location: Drummondville
(45.8830°N, 72.4830°W)
Time: 11:52:18
(UTC-05:00)

Vanguard 1 Rocket - All Passes

Search period start: 23 November 2017 00:00
Search period end: 03 December 2017 00:00
Orbit: 655 x 4222 km, 34.3° (Epoch: 22 November)

Date Brightness Start Highest point End Pass type
(mag) Time Alt. Az. Time Alt. Az. Time Alt. Az.
23 Nov - 01:34:06 10° W 01:58:44 55° SSW 02:15:09 10° SE visible
23 Nov - 04:08:27 10° W 04:25:49 30° SW 04:37:12 10° S visible
23 Nov - 19:26:38 10° SSW 19:43:57 33° SE 20:04:42 10° E visible
23 Nov - 21:50:22 10° SW 22:13:19 56° SSE 22:36:11 10° E visible
24 Nov - 00:19:26 10° W 00:44:48 61° S 01:03:54 10° ESE visible
24 Nov - 02:52:07 10° W 03:13:55 42° SW 03:28:03 10° SSE visible
24 Nov - 05:31:05 10° W 05:38:34 13° WSW 05:44:41 10° SW visible
24 Nov - 18:18:21 10° S 18:31:38 22° SE 18:47:54 10° E visible
24 Nov - 20:38:41 10° SW 20:59:08 48° SSE 21:22:30 10° E visible
24 Nov - 23:05:36 10° WSW 23:30:14 62° S 23:51:51 10° ESE visible
25 Nov - 01:36:39 10° W 02:01:00 52° SSW 02:17:48 10° SE visible
25 Nov - 04:11:36 10° W 04:27:41 25° SW 04:38:55 10° S visible
25 Nov - 17:15:15 10° SE 17:20:12 11° ESE 17:25:37 10° ESE visible
25 Nov - 19:28:11 10° SSW 19:45:43 38° SE 20:07:47 10° E visible
25 Nov - 21:52:45 10° WSW 22:15:33 59° SSE 22:39:00 10° E visible
26 Nov - 00:22:00 10° W 00:47:08 59° SSW 01:06:39 10° ESE visible
26 Nov - 02:54:51 10° W 03:15:55 37° SW 03:30:15 10° SSE visible
26 Nov - 18:19:09 10° S 18:33:16 27° SE 18:51:37 10° E visible
26 Nov - 20:40:54 10° SW 21:01:11 52° SSE 21:25:18 10° E visible
26 Nov - 23:08:11 10° WSW 23:32:35 62° S 23:54:38 10° ESE visible
27 Nov - 01:39:17 10° W 02:03:09 48° SSW 02:20:16 10° SE visible
27 Nov - 04:15:12 10° W 04:29:25 21° SW 04:40:04 10° SSW visible
27 Nov - 17:12:45 10° SSE 17:21:44 16° ESE 17:32:41 10° E visible
27 Nov - 19:30:07 10° SSW 19:47:36 43° SE 20:10:39 10° E visible
27 Nov - 21:55:17 10° WSW 22:17:49 61° S 22:41:45 10° E visible
28 Nov - 00:24:38 10° W 00:49:23 56° SSW 01:09:16 10° SE visible
28 Nov - 02:57:45 10° W 03:17:47 32° SW 03:32:09 10° SSE visible
28 Nov - 18:20:33 10° S 18:34:59 32° SE 18:54:52 10° E visible
28 Nov - 20:43:20 10° SW 21:03:21 56° SSE 21:28:01 10° E visible
28 Nov - 23:10:51 10° W 23:34:55 61° S 23:57:19 10° ESE visible
29 Nov - 01:41:59 10° W 02:05:10 44° SSW 02:22:32 10° SSE visible
29 Nov - 04:19:37 10° W 04:31:03 16° WSW 04:40:19 10° SSW visible
29 Nov - 17:12:47 10° SSE 17:23:21 20° SE 17:37:17 10° E visible
29 Nov - 19:32:19 10° SW 19:49:36 47° SSE 20:13:23 10° E visible
29 Nov - 21:57:56 10° WSW 22:20:08 62° S 22:44:26 10° ESE visible
30 Nov - 00:27:19 10° W 00:51:34 53° SSW 01:11:43 10° SE visible
30 Nov - 03:00:56 10° W 03:19:31 28° SW 03:33:39 10° S visible
30 Nov - 18:22:23 10° SSW 18:36:49 36° SE 18:57:49 10° E visible
30 Nov - 20:45:55 10° WSW 21:05:35 59° SSE 21:30:39 10° E visible
30 Nov - 23:13:35 10° W 23:37:12 59° SSW 23:59:52 10° ESE visible
01 Dec - 01:44:50 10° W 02:07:04 39° SW 02:24:31 10° SSE visible
01 Dec - 04:26:00 10° WSW 04:32:36 12° WSW 04:38:30 10° SW visible
01 Dec - 17:13:49 10° S 17:25:04 24° SE 17:40:59 10° E visible
01 Dec - 19:34:46 10° SW 19:51:43 51° SSE 20:16:01 10° E visible
01 Dec - 22:00:42 10° WSW 22:22:29 62° S 22:47:02 10° ESE visible
02 Dec - 00:30:06 10° W 00:53:38 49° SSW 01:13:59 10° SE visible
02 Dec - 03:04:34 10° W 03:21:10 23° SW 03:34:34 10° S visible
02 Dec - 16:08:24 10° SE 16:14:10 13° ESE 16:21:06 10° E daylight
02 Dec - 18:24:32 10° SSW 18:38:48 41° SE 19:00:34 10° E visible
02 Dec - 20:48:38 10° WSW 21:07:55 60° S 21:33:14 10° E visible
